Flag for Canada Weather past 2 weeks in Kamloops, British Columbia, Canada

Now
64 °F

Light rain. Overcast.


Feels Like: 64 °F
Forecast: 60 / 70 °F
Wind: 10 mph from Southeast

Location: Kamloops

Current Time: Aug 29, 2015 at 6:12:04 AM

Latest Report: Aug 29, 2015 at 5:00 AM


Visibility: 40 mi

Pressure: 29.65 "Hg

Humidity: 64%

Dew point: 52 °F

Location of KamloopsLocation

Historic Weather in Kamloops — Graph

°F

Kamloops temperature yesterday

Maximum temperature yesterday: 79 °F (at 1:00 PM)
Minimum temperature yesterday: 68 °F (at 6:00 AM)
Average temperature yesterday: 73 °F

Past Weeks' High & Low Weather Summary

 TemperatureHumidityPressure
High93 °F (Aug 19, 6:00 PM)94% (Aug 14, 11:00 PM)30.24 "Hg (Aug 14, 11:00 PM)
Low48 °F (Aug 22, 4:00 AM)12% (Aug 25, 5:00 PM)29.53 "Hg (Aug 20, 7:00 PM)
Average70 °F43%29.93 "Hg
* Reported Aug 14 5:00 AM — Aug 29 5:00 AM, Kamloops, Weather by CustomWeather, © 2015

Note: Actual official high and low records may vary slightly from our data, if they occured in-between our weather recording intervals... More about our weather records

Advertising

Kamloops weather history for previous 24 hours

 ConditionsComfort  
Time TempWeatherWind HumidityBarometerVisibility
5:00 AM
Sat, Aug 29
64 °FLight rain. Overcast.10 mph64%29.65 "Hg40 mi
4:00 AM66 °FOvercast.13 mph60%29.67 "Hg40 mi
3:00 AM68 °FOvercast.12 mph46%29.70 "Hg40 mi
2:00 AM68 °FOvercast.8 mph46%29.72 "Hg40 mi
1:00 AM68 °FOvercast.2 mph43%29.74 "Hg40 mi
12:00 AM66 °FPassing clouds.3 mph46%29.75 "Hg40 mi
11:00 PM
Fri, Aug 28
70 °FPartly cloudy.2 mph38%29.77 "Hg40 mi
10:00 PM70 °FPartly cloudy.7 mph40%29.78 "Hg40 mi
9:00 PM72 °FPassing clouds.7 mph33%29.77 "Hg40 mi
8:00 PM73 °FPartly sunny.8 mph31%29.77 "Hg40 mi
7:00 PM75 °FPartly sunny.10 mph27%29.75 "Hg40 mi
6:00 PM77 °FPartly sunny.17 mph22%29.75 "Hg40 mi
5:00 PM79 °FBroken clouds.25 mph26%29.74 "Hg40 mi
4:00 PM77 °FPartly sunny.30 mph28%29.74 "Hg40 mi
3:00 PM77 °FBroken clouds.21 mph30%29.75 "Hg40 mi
2:00 PM79 °FPartly sunny.22 mph30%29.76 "Hg40 mi
1:00 PM79 °FBroken clouds.7 mph37%29.77 "Hg40 mi
12:00 PM77 °FCloudy.3 mph36%29.79 "Hg40 mi
11:00 AM73 °FBroken clouds.18 mph41%29.79 "Hg40 mi
10:00 AM72 °FMostly cloudy.12 mph44%29.81 "Hg40 mi
9:00 AM68 °FMostly cloudy.8 mph46%29.83 "Hg40 mi
8:00 AM68 °FMostly cloudy.5 mph49%29.83 "Hg40 mi
7:00 AM68 °FPassing clouds.7 mph43%29.83 "Hg40 mi
6:00 AM68 °FMostly cloudy.3 mph46%29.83 "Hg40 mi
Weather by CustomWeather, © 2015

See weather overviewHow to use our weather pages